Вернуться в каталог

QIANFAN-78

АктивенСвязьPO
NORAD 63164·PAYLOAD·🇨🇳 China

Запущен Mar 11, 2025 с Wenchang Space Launch Site

Loading…

Ближайшие Пролёты (ближайшие 24 часа)

TLE

СвежийSource: Space-Track

Эпоха: Sep 14, 2026, 13:44 UTC

1 63164U 25046F   26257.57267641  .00000061  00000-0  76201-4 0  9994
2 63164  88.9652 291.3544 0016644  57.6514 302.6246 13.51011867 84678

Отслеживайте QIANFAN-78 в реальном времени с AllMySat

Download on the App Store